Yakima, WA

12:32 AM PDT on July 24, 2016 (GMT -0700)
Yakima Air Term-McAllister

Weather History for KYKM - July, 2012

Change the Weather History Date:

Saturday, July 7, 2012

  Actual Average Record
Temperature  
Mean Temperature 79 °F 69 °F  
Max Temperature 100 °F 86 °F 101 °F (2015)
Min Temperature 58 °F 52 °F 34 °F (1971)
Degree Days  
Heating Degree Days 0 1  
Month to date heating degree days 8 7  
Since 1 June heating degree days 120 105  
Since 1 July heating degree days 8 7  
Cooling Degree Days 14 5  
Month to date cooling degree days 31 31  
Year to date cooling degree days 113 116  
Since 1 June cooling degree days 89 96  
Growing Degree Days 30 (Base 50)    
Moisture  
Dew Point 49 °F    
Average Humidity 42    
Maximum Humidity 67    
Minimum Humidity 16    
Precipitation  
Precipitation 0.00 in 0.01 in 0.66 in (1963)
Month to date precipitation T 0.07  
Year to date precipitation 5.22 4.36  
Snow  
Snow 0.00 in 0.00 in 0.00 in (2002)
Month to date snowfall 0.0 0.0  
Year to date snowfall 21.5 8.6  
Since 1 July snowfall 0.0 0.0  
Snow Depth 0.00 in    
Sea Level Pressure  
Sea Level Pressure 29.98 in    
Wind  
Wind Speed 5 mph (WSW)    
Max Wind Speed 13 mph    
Max Gust Speed 15 mph    
Visibility 10 miles    
Events      
T = Trace of Precipitation, MM = Missing Value Source: NWS Daily Summary

Daily Weather History Graph

Daily Weather History Graph

Search for Another Location

Airport or City:

Trip Planner

Search our weather history database for the weather conditions in past years. The results will help you decide how hot, cold, wet, or windy it might be!

Date:

Astronomy

Jul. 07, 2012 Rise Set
Actual Time 5:17 AM PDT 8:56 PM PDT
Civil Twilight 4:39 AM PDT 9:34 PM PDT
Nautical Twilight 3:47 AM PDT 10:26 PM PDT
Astronomical Twilight 2:36 AM PDT 11:36 PM PDT
Moon 10:56 PM PDT (7/7) 10:06 AM PDT (7/7)
Length of Visible Light 16h 55m
Length of Day
15h 39m
Waning Gibbous, 81% of the Moon is Illuminated
Jul 7
Waning Gibbous
Jul 10
Last Quarter
Jul 18
New
Jul 26
First Quarter
Aug 1
Full

Hourly Weather History & Observations

Time (PDT) Temp. Heat Index Dew Point Humidity Pressure Visibility Wind Dir Wind Speed Gust Speed Precip Events Conditions
12:53 AM 69.1 °F - 50.0 °F 51% 30.01 in 10.0 mi WSW 6.9 mph - N/A   Clear
1:53 AM 62.1 °F - 48.9 °F 62% 30.01 in 10.0 mi WSW 6.9 mph - N/A   Clear
2:53 AM 66.0 °F - 51.1 °F 59% 30.01 in 10.0 mi West 8.1 mph - N/A   Clear
3:53 AM 63.0 °F - 51.1 °F 65% 30.01 in 10.0 mi West 8.1 mph - N/A   Clear
4:53 AM 64.0 °F - 50.0 °F 60% 30.04 in 10.0 mi West 9.2 mph - N/A   Clear
5:53 AM 63.0 °F - 50.0 °F 63% 30.04 in 10.0 mi WSW 8.1 mph - N/A   Clear
6:53 AM 66.9 °F - 51.1 °F 57% 30.05 in 10.0 mi WSW 6.9 mph - N/A   Clear
7:53 AM 71.1 °F - 52.0 °F 51% 30.05 in 10.0 mi WSW 4.6 mph - N/A   Partly Cloudy
8:53 AM 77.0 °F - 52.0 °F 42% 30.05 in 10.0 mi WNW 4.6 mph - N/A   Scattered Clouds
9:53 AM 82.0 °F 81.2 °F 53.1 °F 37% 30.03 in 10.0 mi West 5.8 mph - N/A   Partly Cloudy
10:53 AM 87.1 °F - 52.0 °F 30% 30.01 in 10.0 mi SW 6.9 mph - N/A   Partly Cloudy
11:53 AM 91.0 °F - 46.9 °F 22% 30.01 in 10.0 mi Variable 4.6 mph - N/A   Clear
12:53 PM 93.9 °F - 45.0 °F 18% 29.98 in 10.0 mi SW 3.5 mph - N/A   Partly Cloudy
1:53 PM 96.1 °F - 46.0 °F 18% 29.97 in 10.0 mi Variable 3.5 mph - N/A   Clear
2:53 PM 98.1 °F - 45.0 °F 16% 29.95 in 10.0 mi NE 5.8 mph - N/A   Partly Cloudy
3:53 PM 99.0 °F - 44.1 °F 15% 29.94 in 10.0 mi East 5.8 mph - N/A   Partly Cloudy
4:53 PM 98.1 °F - 44.1 °F 16% 29.92 in 10.0 mi Variable 3.5 mph - N/A   Partly Cloudy
5:53 PM 98.1 °F - 44.1 °F 16% 29.92 in 10.0 mi ESE 3.5 mph - N/A   Partly Cloudy
6:53 PM 97.0 °F - 46.9 °F 18% 29.91 in 10.0 mi South 5.8 mph - N/A   Partly Cloudy
7:53 PM 93.0 °F - 50.0 °F 23% 29.90 in 10.0 mi Calm Calm - N/A   Clear
8:53 PM 82.0 °F 81.2 °F 53.1 °F 37% 29.91 in 10.0 mi Calm Calm - N/A   Partly Cloudy
9:53 PM 75.9 °F - 53.1 °F 45% 29.94 in 10.0 mi West 5.8 mph - N/A   Clear
10:53 PM 73.9 °F - 48.9 °F 41% 29.94 in 10.0 mi WNW 3.5 mph - N/A   Clear
11:53 PM 70.0 °F - 50.0 °F 49% 29.95 in 10.0 mi West 4.6 mph - N/A   Clear